Regional Weather Roundup
Issued by NWS

Home | Current Version | Previous Version | Text Only | Print | Product List | Glossary On
Versions: 1 2 3 4 5 6 7 8 9 10 11 12 13 14 15 16 17 18 19 20 21 22 23 24 25 26 27 28 29 30 31 32 33 34 35 36 37 38 39 40 41 42 43 44 45 46 47 48 49 50
000
ASUS43 KMPX 250310
RWRMN
WEATHER ROUNDUP FOR MINNESOTA
NATIONAL WEATHER SERVICE TWIN CITIES/CHANHASSEN MN
900 PM CST SAT JAN 24 2015


NOTE: "FAIR" INDICATES FEW OR NO CLOUDS BELOW 12,000 FEET WITH NO
SIGNIFICANT WEATHER AND/OR OBSTRUCTIONS TO VISIBILITY. N/A MEANS
CURRENT SKY AND/OR WEATHER CONDITIONS ARE NOT AVAILABLE.

MNZ060>063-068>070-250400-
   Twin Cities Metro

CITY           SKY/WX    TMP DP  RH WIND       PRES   REMARKS
TWIN CITIES    CLOUDY    36  30  79 E8        29.61S
ST PAUL        CLOUDY    36  31  82 CALM      29.63R
CRYSTAL        CLOUDY    38  31  76 E5        29.61R
BLAINE         CLOUDY    37  34  87 E6        29.62
LAKEVILLE        N/A     32  30  93 CALM      29.60S
EDEN PRAIRIE   CLOUDY    36  31  82 NE3       29.60S
SOUTH ST PAUL  CLOUDY    35  32  88 CALM      29.62R
LAKE ELMO      CLOUDY    34  32  93 E5        29.63R WCI  30
$$
MNZ001>005-007-008-013>017-022>024-027-028-250400-
   Northwest Minnesota

CITY           SKY/WX    TMP DP  RH WIND       PRES   REMARKS
BEMIDJI        CLOUDY    25  19  78 N10       29.74R WCI  15
HALLOCK        CLOUDY    23  12  63 NE9       29.84R WCI  13
ROSEAU         CLOUDY    16   9  73 E20       29.83R WCI  -1
WARROAD        CLOUDY    14   7  73 NE13      29.85R WCI   0
THIEF RVR FALL CLOUDY    19  12  73 NE14      29.78S WCI   6
CROOKSTON      CLOUDY    25  18  74 E12G17    29.79R WCI  14
FOSSTON        CLOUDY    25  19  80 NE10      29.76R WCI  15
DETROIT LAKES  CLOUDY    34  32  93 N7        29.71R WCI  28
MOORHEAD       LGT SNOW  34  34 100 N14       29.74R WCI  24
PARK RAPIDS    CLOUDY    33  27  78 NE10G16   29.69R WCI  25
MAHNOMEN       CLOUDY    28  24  82 NE13      29.72R WCI  18
$$
MNZ006-009>011-018-025>026-250400-
   North Central Minnesota

CITY           SKY/WX    TMP DP  RH WIND       PRES   REMARKS
BAUDETTE       CLOUDY    14   6  70 E12       29.82R WCI   0
FLAG ISLAND    CLOUDY    12   3  67 E8        29.86R WCI   1
INTL FALLS     PTCLDY    10   3  73 NE5       29.83R WCI   2
WASKISH        CLOUDY    16  10  79 NE13G18   29.80R WCI   2
BIG FORK       PTCLDY    18  10  73 NE7       29.77R WCI   8
LONGVILLE      CLOUDY    30  23  74 NE6       29.70R WCI  24
GRAND RAPIDS   MOCLDY    27  19  74 NE5       29.71R WCI  21
CRANE LAKE     PTCLDY    10   3  72 CALM      29.86R
ORR            PTCLDY    12   5  73 CALM      29.78R
COOK           MOCLDY    14   9  79 NE5       29.79R WCI   6
WALKER         CLOUDY    28  22  78 NE8       29.72R WCI  20
$$
MNZ012-019>021-037-250400-
   Northeast Minnesota

CITY           SKY/WX    TMP DP  RH WIND       PRES   REMARKS
DULUTH         CLOUDY    24  19  81 E18G29    29.73R WCI  10
ELY            PTCLDY    10   3  72 NE5       29.80R WCI   2
HIBBING        CLOUDY    25  14  63 NE7       29.74R WCI  17
EVELETH        CLOUDY    23  18  80 NE9       29.76R WCI  13
DULUTH HARBOR  CLOUDY    28  23  80 NE21G29   29.78R WCI  15
TWO HARBORS    CLOUDY    27  19  74 E20       29.76R WCI  13
SILVER BAY     CLOUDY    21  14  73 NE13G18   29.78R WCI   9
GRAND MARAIS     N/A     13   0  56 N8G17     29.85R WCI   2
G MARAIS ARPRT PTCLDY     5  -4  66 N10       29.75R WCI -10
$$
MNZ029>031-032-039>041-046>048-054>057-064-250400-
   West Central Minnesota

CITY           SKY/WX    TMP DP  RH WIND       PRES   REMARKS
FERGUS FALLS   DRIZZLE   32  32 100 N7        29.71R WCI  26
WHEATON        LGT SNOW  30  28  93 NW12      29.70R WCI  21
MORRIS         LGT SNOW  34  30  86 N8        29.64R WCI  27
ALEXANDRIA     LGT SNOW  32  30  92 NE7       29.65R FOG     WCI  26
ELBOW LAKE     LGT SNOW  32  31  98 N7        29.66R WCI  25
WADENA         CLOUDY    32  28  86 NE8       29.67R WCI  25
GLENWOOD       LGT SNOW  32  32 100 NE8       29.63R WCI  25
APPLETON       CLOUDY    34  30  86 N10       29.63R WCI  26
BENSON         CLOUDY    34  30  86 NE6       29.62S WCI  29
ORTONVILLE     MIX PCPN  32  30  93 N13       29.64R WCI  22
MADISON        CLOUDY    36  36 100 N9        29.63R
WILLMAR        CLOUDY    34  30  86 N5        29.62S WCI  30
$$
MNZ033>034-036-042>043-049>051-058-059-250400-
   Central Minnesota

CITY           SKY/WX    TMP DP  RH WIND       PRES   REMARKS
ST CLOUD       CLOUDY    36  30  79 NE5       29.63R
SAUK CENTRE    RAIN      32  32  98 NE6       29.63R WCI  27
PAYNESVILLE    DRIZZLE   32  30  94 N7        29.62R WCI  25
AITKIN         CLOUDY    36  28  75 N8        29.67R
PINE RIVER     CLOUDY    34  28  80 NE6       29.73R WCI  29
BRAINERD       CLOUDY    34  28  79 NE8       29.67R WCI  27
STAPLES        CLOUDY    34  30  86 NE6       29.67R WCI  29
LONG PRAIRIE   LGT SNOW  32  32 100 N6        29.64R WCI  26
LITTLE FALLS   CLOUDY    34  30  86 NE3       29.65R
LITCHFIELD     CLOUDY    34  34 100 N3        29.61S
BUFFALO        CLOUDY    33  31  92 NE6       29.62S WCI  28
MAPLE LAKE     CLOUDY    34  33  94 N5        29.62R WCI  30
$$
MNZ037-044-045-052-053-250400-
   East Central Minnesota

CITY           SKY/WX    TMP DP  RH WIND       PRES   REMARKS
PRINCETON      CLOUDY    37  30  75 NE6       29.64R
MORA           CLOUDY    34  28  80 NE6       29.67R WCI  29
CAMBRIDGE      CLOUDY    37  28  70 CALM      29.62R
RUSH CITY      CLOUDY    35  30  81 NE7       29.65R WCI  29
MOOSE LAKE     CLOUDY    28  25  86 NE13G20   29.69R WCI  18
HINCKLEY       CLOUDY    32  32 100 NE9       29.67R WCI  24
CLOQUET        CLOUDY    25  19  80 E12       29.73R WCI  14
MCGREGOR       CLOUDY    30  27  86 E9        29.70R WCI  22
$$
MNZ071>073-080-081-089-090-097-098-250400-
   Southwest Minnesota

CITY           SKY/WX    TMP DP  RH WIND       PRES   REMARKS
MONTEVIDEO     CLOUDY    34  34 100 NE8       29.62S WCI  27
GRANITE FALLS  CLOUDY    33  32  98 CALM      29.62S
CANBY          CLOUDY    33  32  96 NW5       29.63R FOG     WCI  29
MARSHALL       CLOUDY    32  30  93 NW5       29.62R WCI  27
REDWOOD FALLS  CLOUDY    35  31  85 N6        29.60R WCI  30
OLIVIA         CLOUDY    32  32 100 N5        29.60R WCI  27
PIPESTONE      CLOUDY    36  34  93 NE9       29.55S
WINDOM         DRIZZLE   34  34 100 CALM      29.57S
WORTHINGTON    CLOUDY    34  30  86 CALM      29.57S
JACKSON        CLOUDY    36  32  87 NW6       29.56S
TRACY          DRIZZLE   35  34  96 N9        29.59S WCI  27
SLAYTON        LGT RAIN  34  32  93 N7        29.57S WCI  28
$$
MNZ065>067-074>077-082>085-091>093-250400-
   South Central Minnesota

CITY           SKY/WX    TMP DP  RH WIND       PRES   REMARKS
MANKATO        CLOUDY    36  30  80 NE5       29.58S
NEW ULM        CLOUDY    34  32  93 N3        29.59R
ST JAMES       DRIZZLE   36  34  93 N3        29.58F
FAIRMONT       CLOUDY    34  28  80 CALM      29.57S
GLENCOE        CLOUDY    32  32  99 CALM      29.60R
FARIBAULT      CLOUDY    34  32  93 CALM      29.60S
OWATONNA       MOCLDY    36  34  93 NE3       29.58F
WASECA         CLOUDY    32  32 100 CALM      29.59S
ALBERT LEA     CLOUDY    34  34 100 CALM      29.56F
$$
MNZ078>079-086>088-094>096-250400-
   Southeast Minnesota

CITY           SKY/WX    TMP DP  RH WIND       PRES   REMARKS
ROCHESTER      CLOUDY    34  31  88 E6        29.59S WCI  29
RED WING       CLOUDY    32  30  93 CALM      29.62R
STANTON        MOCLDY    34  31  90 NE5       29.59F WCI  30
DODGE CENTER   CLOUDY    34  34 100 CALM      29.58S FOG
WINONA         CLOUDY    32  30  93 CALM      29.64S
AUSTIN         CLOUDY    34  30  86 CALM      29.57F FOG
PRESTON        MOCLDY    32  31  94 CALM      29.59F
$$
ABBREVIATIONS USED IN REMARKS
   TC - TEMPERATURES IN CELSIUS
  WCI - WIND CHILL INDEX
   HX - HEAT INDEX
  VSB - VISIBILITY
$$


USA.gov is the U.S. government's official web portal to all federal, state and local government web resources and services.